Location: Unspecified
(0.0000°N, 0.0000°E)
Time: 13:41:52
(UTC+00:00)

S-56A Canister/Altair - Pass Details

Date: 23 November 2019
Orbit: 633 x 2500 km, 38.9° (Epoch: 08 December)

Event Time Altitude Azimuth Distance (km) Brightness Sun altitude
Rises 08:39:57 0° 201° (SSW) 5,396 11.9 40.1°
Reaches altitude 10° 08:45:21 10° 182° (S) 4,710 11.9 41.3°
Maximum altitude 08:53:20 17° 146° (SE) 4,432 12.5 43.1°
Drops below altitude 10° 09:01:56 10° 110° (ESE) 5,162 12.8 45.0°
Sets 09:08:13 0° 93° (E) 6,131 12.7 46.3°
